Weather History for Salt Lake City, UT

Change the Weather History Date:

Saturday, May 18, 2013

  Actual Average Record
Temperature  
Mean Temperature 58 °F 60 °F  
Max Temperature 65 °F 73 °F 92 °F (1932)
Min Temperature 50 °F 48 °F 33 °F (1960)
Degree Days  
Heating Degree Days 7 6  
Month to date heating degree days 85 147  
Since 1 July heating degree days 5403 5503  
Cooling Degree Days 0 2  
Month to date cooling degree days 53 18  
Year to date cooling degree days 53 22  
Growing Degree Days 7 (Base 50)    
Moisture  
Dew Point 45 °F    
Average Humidity 70    
Maximum Humidity 96    
Minimum Humidity 43    
Precipitation  
Precipitation 0.27 in 0.06 in 1.00 in (1977)
Month to date precipitation 0.44 1.20  
Year to date precipitation 5.30 7.48  
Snow  
Snow 0.00 in 0.00 in 1.00 in (1960)
Month to date snowfall T 0.3  
Since 1 July snowfall 69.9 56.2  
Snow Depth 0.00 in    
Sea Level Pressure  
Sea Level Pressure 29.96 in    
Wind  
Wind Speed 4 mph (North)    
Max Wind Speed 13 mph    
Max Gust Speed 15 mph    
Visibility 9 miles    
Events Rain    
T = Trace of Precipitation, MM = Missing Value Source: NWS Daily Summary

Daily Weather History Graph

Daily Weather History Graph

Search for Another Location

Airport:

Trip Planner

Search our weather history database for the weather conditions in past years. The results will help you decide how hot, cold, wet, or windy it might be!

Date:

Astronomy

May. 18, 2013 Rise Set
Actual Time 6:07 AM MDT 8:41 PM MDT
Civil Twilight 5:36 AM MDT 9:13 PM MDT
Nautical Twilight 4:57 AM MDT 9:52 PM MDT
Astronomical Twilight 4:13 AM MDT 10:36 PM MDT
Moon 1:46 PM MDT (5/18) 2:04 AM MDT (5/18)
Length of Visible Light 15h 36m
Length of Day
14h 33m
First Quarter, 56% of the Moon is Illuminated
May 18
First Quarter
May 24
Full
May 31
Last Quarter
Jun 8
New
Jun 16
First Quarter

Hourly Weather History & Observations

Time (MDT) Temp. Dew Point Humidity Pressure Visibility Wind Dir Wind Speed Gust Speed Precip Events Conditions
12:53 AM 53.1 °F 48.9 °F 86% 29.87 in 10.0 mi Calm Calm - 0.04 in   Overcast
1:38 AM 51.8 °F 48.2 °F 88% 29.98 in 4.0 mi SW 5.8 mph - 0.04 in Rain Light Rain
1:53 AM 52.0 °F 48.9 °F 89% 29.89 in 4.0 mi SW 4.6 mph - 0.07 in Rain Rain
2:33 AM 51.8 °F 48.2 °F 88% 29.98 in 6.0 mi Calm Calm - 0.07 in Rain Light Rain
2:53 AM 52.0 °F 48.9 °F 89% 29.89 in 6.0 mi ESE 3.5 mph - 0.07 in Rain Light Rain
3:53 AM 52.0 °F 48.9 °F 89% 29.89 in 10.0 mi ESE 3.5 mph - 0.01 in   Overcast
4:53 AM 53.1 °F 48.9 °F 86% 29.88 in 6.0 mi North 3.5 mph - 0.03 in Rain Light Rain
5:53 AM 53.1 °F 48.0 °F 83% 29.90 in 10.0 mi NE 3.5 mph - 0.00 in Rain Light Rain
6:53 AM 52.0 °F 46.9 °F 83% 29.92 in 6.0 mi West 6.9 mph - 0.01 in Rain Light Rain
7:53 AM 52.0 °F 45.0 °F 77% 29.95 in 10.0 mi West 10.4 mph - 0.00 in   Overcast
8:53 AM 51.1 °F 46.9 °F 86% 29.98 in 10.0 mi NNE 11.5 mph - 0.03 in   Overcast
9:02 AM 51.8 °F 46.4 °F 82% 30.04 in 10.0 mi NNE 9.2 mph - 0.00 in Rain Light Rain
9:53 AM 53.1 °F 45.0 °F 74% 29.99 in 10.0 mi NNE 8.1 mph - 0.00 in Rain Light Rain
10:27 AM 51.8 °F 44.6 °F 76% 30.05 in 10.0 mi North 6.9 mph - 0.00 in Rain Light Rain
10:53 AM 51.1 °F 46.0 °F 83% 30.00 in 10.0 mi North 11.5 mph - 0.01 in Rain Light Rain
11:18 AM 50.0 °F 44.6 °F 82% 30.07 in 10.0 mi North 9.2 mph - 0.00 in Rain Light Rain
11:45 AM 50.0 °F 46.4 °F 87% 30.07 in 2.5 mi North 6.9 mph - 0.02 in Rain Rain
11:53 AM 51.1 °F 46.9 °F 86% 30.01 in 5.0 mi North 8.1 mph - 0.04 in Rain Light Rain
12:53 PM 55.4 °F 46.4 °F 72% 30.05 in 10.0 mi Calm Calm - N/A   Mostly Cloudy
1:53 PM 59.0 °F 45.0 °F 60% 29.97 in 10.0 mi NNW 4.6 mph - N/A   Mostly Cloudy
2:53 PM 60.1 °F 43.0 °F 53% 29.97 in 10.0 mi NW 4.6 mph - N/A   Mostly Cloudy
3:53 PM 63.0 °F 43.0 °F 48% 29.95 in 10.0 mi NNW 4.6 mph - N/A   Mostly Cloudy
4:53 PM 62.1 °F 39.9 °F 44% 29.95 in 10.0 mi Variable 6.9 mph - N/A   Mostly Cloudy
5:53 PM 61.0 °F 41.0 °F 48% 29.96 in 10.0 mi NNW 10.4 mph - N/A   Mostly Cloudy
6:53 PM 62.1 °F 41.0 °F 46% 29.94 in 10.0 mi NNE 5.8 mph - N/A   Mostly Cloudy
7:53 PM 62.1 °F 39.9 °F 44% 29.94 in 10.0 mi North 5.8 mph - N/A   Mostly Cloudy
8:53 PM 59.0 °F 37.0 °F 44% 29.94 in 10.0 mi Calm Calm - N/A   Scattered Clouds
9:53 PM 53.6 °F 42.8 °F 67% 30.02 in 10.0 mi Calm Calm - N/A   Scattered Clouds
10:53 PM 55.0 °F 41.0 °F 59% 29.95 in 10.0 mi Calm Calm - N/A   Scattered Clouds
11:53 PM 53.1 °F 41.0 °F 64% 29.96 in 10.0 mi SSE 4.6 mph - N/A   Scattered Clouds